Home   Weather   Koszalin   Past weeks

Flag for Poland Past Weather in Koszalin, Poland — Yesterday and Last 2 Weeks

Now
58 °F

Passing clouds.


Feels Like: 58 °F
Forecast: 55 / 63 °F
Wind: 2 mph from Southeast

Location: Koszalin

Current Time: Sep 27, 2016 at 9:03:47 PM

Latest Report: Sep 27, 2016 at 8:00 PM


Visibility: 10 mi

Pressure: 30.32 "Hg

Humidity: 73%

Dew Point: 49 °F

Location of KoszalinLocation

Past Weather in Koszalin — Graph

°F

Koszalin Temperature Yesterday

Maximum temperature yesterday: 67 °F (at 3:00 PM)
Minimum temperature yesterday: 48 °F (at 7:00 AM)
Average temperature yesterday: 57 °F

High & Low Weather Summary for the Past Weeks

 TemperatureHumidityPressure
High80 °F (Sep 13, 2:00 PM)100% (Sep 13, 6:00 AM)30.34 "Hg (Sep 13, 6:00 AM)
Low43 °F (Sep 19, 7:00 AM)39% (Sep 14, 1:00 PM)29.94 "Hg (Sep 16, 5:00 PM)
Average59 °F77%30.15 "Hg
* Reported Sep 12 7:00 PM — Sep 27 7:00 PM, Koszalin, Weather by CustomWeather, © 2016

Note: Actual official high and low records may vary slightly from our data, if they occured in-between our weather recording intervals... More about our weather records

Advertising

Koszalin Weather History for the Previous 24 Hours

Scroll right to see more
 ConditionsComfort  
Time TempWeatherWind HumidityBarometerVisibility
7:00 PM
Tue, Sep 27
60 °FPassing clouds.2 mph66%30.32 "Hg10 mi
6:00 PM64 °FPassing clouds.2 mph55%30.31 "Hg25 mi
5:00 PM65 °FPassing clouds.2 mph52%30.31 "Hg22 mi
4:00 PM66 °FPassing clouds.2 mph49%30.32 "Hg19 mi
3:00 PM65 °FPassing clouds.2 mph49%30.32 "Hg17 mi
2:00 PM65 °FPassing clouds.2 mph51%30.33 "Hg19 mi
1:00 PM64 °FSunny.2 mph53%30.33 "Hg18 mi
12:00 PM62 °FSunny.3 mph57%30.34 "Hg19 mi
11:00 AM58 °FSunny.2 mph67%30.34 "Hg14 mi
10:00 AM53 °FPassing clouds.3 mph74%30.34 "Hg11 mi
9:00 AM49 °FPassing clouds.5 mph79%30.33 "Hg10 mi
8:00 AM46 °FScattered clouds.3 mph86%30.33 "Hg9 mi
7:00 AM46 °FPassing clouds.3 mph89%30.32 "Hg9 mi
6:00 AM46 °FPassing clouds.3 mph87%30.31 "Hg11 mi
5:00 AM47 °FClear.3 mph85%30.30 "Hg12 mi
4:00 AM49 °FClear.3 mph84%30.30 "Hg13 mi
3:00 AM49 °FClear.3 mph84%30.29 "Hg14 mi
2:00 AM51 °FClear.3 mph83%30.29 "Hg17 mi
1:00 AM52 °FClear.3 mph84%30.29 "Hg17 mi
12:00 AM53 °FClear.3 mph82%30.29 "Hg18 mi
11:00 PM
Mon, Sep 26
54 °FClear.2 mph83%30.29 "Hg18 mi
10:00 PM55 °FClear.2 mph79%30.28 "Hg22 mi
9:00 PM56 °FClear.2 mph76%30.27 "Hg19 mi
Weather by CustomWeather, © 2016

See weather overviewHow to use our weather pages